N80FC KMRY-KLAX

Flight info

Callsign N80FC
Flight time 0h 51m
Altitude 41000
Route BSR LIBBO TOKIO HUULL2
Aircraft C700/M-SBDGHM1RWXY/LB2

Departure

Time 2026-05-07 22:35
Airport Monterey Regional Airport (KMRY)

Arrival

Time 2026-05-07 23:26
Airport Los Angeles International Airport (KLAX)
Time Latitude Longitude Altitude Speed Heading
2026-05-07 22:22 36.58892 -121.85887 169 ft 0 kts 110°
2026-05-07 22:28 36.58891 -121.85885 169 ft 2 kts 108°
2026-05-07 22:28 36.58894 -121.85835 169 ft 10 kts 79°
2026-05-07 22:29 36.58914 -121.85729 167 ft 15 kts 76°
2026-05-07 22:29 36.58943 -121.85591 169 ft 17 kts 75°
2026-05-07 22:29 36.58942 -121.85445 173 ft 17 kts 111°
2026-05-07 22:29 36.58897 -121.85316 179 ft 15 kts 113°
2026-05-07 22:30 36.58866 -121.85193 190 ft 15 kts 103°
2026-05-07 22:30 36.58828 -121.85063 190 ft 17 kts 112°
2026-05-07 22:30 36.58777 -121.84914 197 ft 20 kts 112°
2026-05-07 22:30 36.58722 -121.84748 207 ft 21 kts 114°
2026-05-07 22:31 36.58657 -121.84592 218 ft 20 kts 119°
2026-05-07 22:31 36.58600 -121.84432 219 ft 21 kts 112°
2026-05-07 22:31 36.58542 -121.84262 224 ft 22 kts 113°
2026-05-07 22:31 36.58483 -121.84088 230 ft 22 kts 111°
2026-05-07 22:32 36.58421 -121.83906 240 ft 23 kts 113°
2026-05-07 22:32 36.58358 -121.83718 242 ft 24 kts 112°
2026-05-07 22:32 36.58297 -121.83534 247 ft 11 kts 108°
2026-05-07 22:32 36.58295 -121.83527 248 ft 0 kts 107°
2026-05-07 22:33 36.58294 -121.83521 248 ft 4 kts 107°
2026-05-07 22:33 36.58283 -121.83439 253 ft 11 kts 89°
2026-05-07 22:34 36.58307 -121.83368 260 ft 6 kts 23°
2026-05-07 22:34 36.58366 -121.83457 254 ft 29 kts 296°
2026-05-07 22:34 36.58551 -121.83996 235 ft 112 kts 293°
2026-05-07 22:34 36.58949 -121.85155 548 ft 166 kts 292°
2026-05-07 22:35 36.59439 -121.86565 1665 ft 187 kts 300°
2026-05-07 22:35 36.60502 -121.87513 2907 ft 193 kts 345°
2026-05-07 22:35 36.61863 -121.87990 4091 ft 216 kts 342°
2026-05-07 22:35 36.63385 -121.88587 5129 ft 243 kts 341°
2026-05-07 22:36 36.64990 -121.89497 6156 ft 264 kts 318°
2026-05-07 22:36 36.66101 -121.91386 7251 ft 276 kts 291°
2026-05-07 22:36 36.66681 -121.93585 9002 ft 270 kts 284°
2026-05-07 22:36 36.66727 -121.95949 10277 ft 278 kts 255°
2026-05-07 22:37 36.65892 -121.98231 11210 ft 304 kts 238°
2026-05-07 22:37 36.64462 -122.00315 12009 ft 333 kts 218°
2026-05-07 22:37 36.62321 -122.01678 12867 ft 357 kts 200°
2026-05-07 22:37 36.59911 -122.02541 14212 ft 365 kts 194°
2026-05-07 22:38 36.57410 -122.03290 15335 ft 374 kts 192°
2026-05-07 22:38 36.54785 -122.03284 16475 ft 383 kts 169°
2026-05-07 22:38 36.52253 -122.02308 17643 ft 391 kts 159°
2026-05-07 22:38 36.49710 -122.01003 18670 ft 401 kts 157°
2026-05-07 22:39 36.47105 -121.99729 19749 ft 404 kts 160°
2026-05-07 22:39 36.44379 -121.98746 20742 ft 412 kts 166°
2026-05-07 22:39 36.41569 -121.97932 21737 ft 417 kts 166°
2026-05-07 22:39 36.38745 -121.97009 22659 ft 423 kts 163°
2026-05-07 22:40 36.35914 -121.95925 23584 ft 428 kts 162°
2026-05-07 22:40 36.33037 -121.94855 24395 ft 434 kts 164°
2026-05-07 22:40 36.30101 -121.93862 25152 ft 440 kts 165°
2026-05-07 22:40 36.27126 -121.92858 25928 ft 446 kts 164°
2026-05-07 22:41 36.24120 -121.91785 26653 ft 452 kts 163°
2026-05-07 22:41 36.21084 -121.90692 27347 ft 458 kts 164°
2026-05-07 22:41 36.17995 -121.89616 28095 ft 462 kts 165°
2026-05-07 22:41 36.14878 -121.88540 28745 ft 470 kts 165°
2026-05-07 22:42 36.11717 -121.87434 29534 ft 473 kts 164°
2026-05-07 22:42 36.08524 -121.86306 30125 ft 481 kts 164°
2026-05-07 22:42 36.05299 -121.85179 30858 ft 483 kts 165°
2026-05-07 22:42 36.02109 -121.83816 31448 ft 486 kts 156°
2026-05-07 22:43 35.99178 -121.81883 32418 ft 481 kts 148°
2026-05-07 22:43 35.96498 -121.79395 33051 ft 484 kts 138°
2026-05-07 22:43 35.94045 -121.76604 34020 ft 478 kts 137°
2026-05-07 22:43 35.91581 -121.73836 34651 ft 477 kts 138°
2026-05-07 22:44 35.89117 -121.71091 35237 ft 476 kts 138°
2026-05-07 22:44 35.86669 -121.68343 35796 ft 476 kts 137°
2026-05-07 22:44 35.84226 -121.65586 36399 ft 474 kts 138°
2026-05-07 22:44 35.81829 -121.62896 36967 ft 471 kts 138°
2026-05-07 22:45 35.79402 -121.60184 37407 ft 471 kts 139°
2026-05-07 22:45 35.76966 -121.57464 37681 ft 475 kts 138°
2026-05-07 22:45 35.74524 -121.54728 38135 ft 473 kts 139°
2026-05-07 22:45 35.72088 -121.52004 38582 ft 471 kts 138°
2026-05-07 22:46 35.69673 -121.49305 39002 ft 468 kts 138°
2026-05-07 22:46 35.67258 -121.46613 39268 ft 469 kts 138°
2026-05-07 22:46 35.64840 -121.43920 39539 ft 468 kts 138°
2026-05-07 22:46 35.62429 -121.41235 39794 ft 469 kts 138°
2026-05-07 22:47 35.60006 -121.38538 39924 ft 471 kts 138°
2026-05-07 22:47 35.57575 -121.35835 40164 ft 471 kts 139°
2026-05-07 22:47 35.55140 -121.33131 40382 ft 471 kts 139°
2026-05-07 22:47 35.52713 -121.30437 40635 ft 470 kts 139°
2026-05-07 22:48 35.51111 -121.28660 40814 ft 469 kts 139°
2026-05-07 22:48 35.48689 -121.25976 40987 ft 469 kts 139°
2026-05-07 22:48 35.45463 -121.22404 41086 ft 473 kts 139°
2026-05-07 22:49 35.40527 -121.16949 41090 ft 482 kts 139°
2026-05-07 22:49 35.36418 -121.12283 41095 ft 488 kts 137°
2026-05-07 22:50 35.31409 -121.06606 41093 ft 490 kts 137°
2026-05-07 22:50 35.26444 -121.00918 41089 ft 487 kts 137°
2026-05-07 22:51 35.21482 -120.95276 41092 ft 485 kts 137°
2026-05-07 22:51 35.16549 -120.89664 41069 ft 484 kts 137°
2026-05-07 22:52 35.11609 -120.84055 41080 ft 486 kts 137°
2026-05-07 22:52 35.06636 -120.78419 41079 ft 489 kts 137°
2026-05-07 22:53 35.01637 -120.72762 41089 ft 491 kts 137°
2026-05-07 22:53 34.96584 -120.67267 41071 ft 488 kts 144°
2026-05-07 22:54 34.90900 -120.62703 40487 ft 497 kts 147°
2026-05-07 22:54 34.88000 -120.60368 39662 ft 501 kts 147°
2026-05-07 22:54 34.85092 -120.58027 38867 ft 499 kts 147°
2026-05-07 22:54 34.82200 -120.55721 37968 ft 493 kts 147°
2026-05-07 22:55 34.79344 -120.53450 37062 ft 487 kts 147°
2026-05-07 22:55 34.76529 -120.51202 36193 ft 482 kts 146°
2026-05-07 22:55 34.73734 -120.48967 35357 ft 480 kts 146°
2026-05-07 22:55 34.70941 -120.46742 34553 ft 481 kts 146°
2026-05-07 22:56 34.68134 -120.44510 33832 ft 482 kts 146°
2026-05-07 22:56 34.65325 -120.42279 33189 ft 485 kts 146°
2026-05-07 22:56 34.62477 -120.40011 32538 ft 494 kts 146°
2026-05-07 22:56 34.59625 -120.37743 31885 ft 495 kts 145°
2026-05-07 22:57 34.56741 -120.35461 31226 ft 495 kts 145°
2026-05-07 22:57 34.53850 -120.33169 30561 ft 496 kts 146°
2026-05-07 22:57 34.50963 -120.30878 29870 ft 495 kts 146°
2026-05-07 22:57 34.48082 -120.28600 29184 ft 495 kts 145°
2026-05-07 22:58 34.45207 -120.26318 28538 ft 493 kts 146°
2026-05-07 22:58 34.42336 -120.24051 27888 ft 492 kts 146°
2026-05-07 22:58 34.39471 -120.21792 27243 ft 490 kts 146°
2026-05-07 22:58 34.36631 -120.19551 26601 ft 482 kts 146°
2026-05-07 22:59 34.33856 -120.17364 25977 ft 467 kts 145°
2026-05-07 22:59 34.31189 -120.15260 25381 ft 447 kts 145°
2026-05-07 22:59 34.28640 -120.13249 24815 ft 428 kts 146°
2026-05-07 22:59 34.26249 -120.11227 24264 ft 411 kts 139°
2026-05-07 23:00 34.24244 -120.08860 23733 ft 396 kts 129°
2026-05-07 23:00 34.22629 -120.06219 23181 ft 386 kts 120°
2026-05-07 23:00 34.21400 -120.03370 22720 ft 379 kts 111°
2026-05-07 23:00 34.20566 -120.00412 22331 ft 377 kts 103°
2026-05-07 23:01 34.20102 -119.97275 21917 ft 383 kts 94°
2026-05-07 23:01 34.20005 -119.94049 21504 ft 386 kts 89°
2026-05-07 23:01 34.19972 -119.90813 21086 ft 384 kts 89°
2026-05-07 23:01 34.19920 -119.87610 20673 ft 377 kts 90°
2026-05-07 23:02 34.19872 -119.84498 20272 ft 363 kts 89°
2026-05-07 23:02 34.19834 -119.81514 19885 ft 349 kts 90°
2026-05-07 23:02 34.19797 -119.78628 19521 ft 339 kts 90°
2026-05-07 23:02 34.19756 -119.75794 19160 ft 337 kts 90°
2026-05-07 23:03 34.19713 -119.72965 18803 ft 337 kts 90°
2026-05-07 23:03 34.19672 -119.70123 18442 ft 339 kts 89°
2026-05-07 23:03 34.19630 -119.67267 18019 ft 341 kts 90°
2026-05-07 23:03 34.19586 -119.64416 17641 ft 339 kts 90°
2026-05-07 23:04 34.19542 -119.61583 17275 ft 336 kts 90°
2026-05-07 23:04 34.19497 -119.58779 16917 ft 333 kts 90°
2026-05-07 23:04 34.19453 -119.55993 16562 ft 331 kts 90°
2026-05-07 23:04 34.19409 -119.53224 16205 ft 329 kts 90°
2026-05-07 23:05 34.19363 -119.50472 15852 ft 327 kts 90°
2026-05-07 23:05 34.19318 -119.47729 15495 ft 326 kts 90°
2026-05-07 23:05 34.19272 -119.45001 15148 ft 323 kts 90°
2026-05-07 23:05 34.19226 -119.42301 14801 ft 320 kts 90°
2026-05-07 23:06 34.19179 -119.39620 14463 ft 319 kts 90°
2026-05-07 23:06 34.19133 -119.36951 14121 ft 317 kts 90°
2026-05-07 23:06 34.19087 -119.34291 13821 ft 317 kts 90°
2026-05-07 23:06 34.19045 -119.31583 13535 ft 330 kts 90°
2026-05-07 23:07 34.19002 -119.28762 13251 ft 341 kts 90°
2026-05-07 23:07 34.18954 -119.25890 12958 ft 342 kts 90°
2026-05-07 23:07 34.18904 -119.23025 12660 ft 340 kts 90°
2026-05-07 23:07 34.18856 -119.20178 12375 ft 337 kts 90°
2026-05-07 23:08 34.18808 -119.17360 12092 ft 332 kts 90°
2026-05-07 23:08 34.18759 -119.14632 11806 ft 317 kts 90°
2026-05-07 23:08 34.18713 -119.12031 11542 ft 303 kts 89°
2026-05-07 23:08 34.18670 -119.09564 11294 ft 293 kts 88°
2026-05-07 23:09 34.18562 -119.07122 11041 ft 292 kts 96°
2026-05-07 23:09 34.18002 -119.04765 11014 ft 293 kts 111°
2026-05-07 23:09 34.17128 -119.02517 11016 ft 298 kts 114°
2026-05-07 23:09 34.16235 -119.00232 11005 ft 303 kts 114°
2026-05-07 23:10 34.15333 -118.97907 11003 ft 307 kts 114°
2026-05-07 23:10 34.14421 -118.95575 11016 ft 308 kts 114°
2026-05-07 23:10 34.13508 -118.93244 11003 ft 306 kts 113°
2026-05-07 23:10 34.12604 -118.90938 10999 ft 302 kts 113°
2026-05-07 23:11 34.11707 -118.88643 10981 ft 302 kts 114°
2026-05-07 23:11 34.10807 -118.86346 10983 ft 303 kts 113°
2026-05-07 23:11 34.09907 -118.84053 10987 ft 302 kts 113°
2026-05-07 23:11 34.09019 -118.81790 10981 ft 301 kts 113°
2026-05-07 23:12 34.08126 -118.79518 10975 ft 299 kts 114°
2026-05-07 23:12 34.07237 -118.77254 10965 ft 299 kts 114°
2026-05-07 23:12 34.06347 -118.74988 10976 ft 299 kts 114°
2026-05-07 23:12 34.05454 -118.72715 10977 ft 299 kts 114°
2026-05-07 23:13 34.04565 -118.70446 10994 ft 299 kts 114°
2026-05-07 23:13 34.03676 -118.68181 10947 ft 297 kts 114°
2026-05-07 23:13 34.02960 -118.65853 10619 ft 296 kts 101°
2026-05-07 23:13 34.02680 -118.63398 10253 ft 294 kts 93°
2026-05-07 23:14 34.02462 -118.60955 9872 ft 291 kts 94°
2026-05-07 23:14 34.02231 -118.58544 9465 ft 287 kts 95°
2026-05-07 23:14 34.02002 -118.56175 9089 ft 283 kts 94°
2026-05-07 23:14 34.01785 -118.53867 8735 ft 278 kts 95°
2026-05-07 23:15 34.01571 -118.51568 8391 ft 274 kts 95°
2026-05-07 23:15 34.01357 -118.49299 8050 ft 271 kts 95°
2026-05-07 23:15 34.01145 -118.47051 7707 ft 268 kts 95°
2026-05-07 23:15 34.01166 -118.44819 7321 ft 266 kts 79°
2026-05-07 23:16 34.01554 -118.42639 6949 ft 266 kts 76°
2026-05-07 23:16 34.01931 -118.40460 6572 ft 266 kts 77°
2026-05-07 23:16 34.02300 -118.38264 6194 ft 267 kts 77°
2026-05-07 23:16 34.02672 -118.36090 5997 ft 260 kts 77°
2026-05-07 23:17 34.02908 -118.34004 5881 ft 252 kts 83°
2026-05-07 23:17 34.03117 -118.31867 5343 ft 263 kts 82°
2026-05-07 23:17 34.03350 -118.29625 4756 ft 273 kts 82°
2026-05-07 23:17 34.03584 -118.27356 4365 ft 271 kts 83°
2026-05-07 23:18 34.03811 -118.25103 3978 ft 270 kts 83°
2026-05-07 23:18 34.04037 -118.22857 3619 ft 268 kts 83°
2026-05-07 23:18 34.04258 -118.20689 3580 ft 252 kts 82°
2026-05-07 23:18 34.04464 -118.18654 3576 ft 239 kts 82°
2026-05-07 23:19 34.04660 -118.16680 3572 ft 235 kts 82°
2026-05-07 23:19 34.04857 -118.14728 3580 ft 236 kts 82°
2026-05-07 23:19 34.05023 -118.12777 3565 ft 237 kts 90°
2026-05-07 23:19 34.04528 -118.10912 3563 ft 236 kts 128°
2026-05-07 23:20 34.03249 -118.09741 3570 ft 231 kts 163°
2026-05-07 23:20 34.01677 -118.09683 3569 ft 226 kts 200°
2026-05-07 23:20 34.00382 -118.10681 3582 ft 221 kts 227°
2026-05-07 23:20 33.99328 -118.12022 3578 ft 220 kts 231°
2026-05-07 23:21 33.98306 -118.13383 3570 ft 219 kts 232°
2026-05-07 23:21 33.97277 -118.14778 3356 ft 225 kts 231°
2026-05-07 23:21 33.96254 -118.16204 3137 ft 221 kts 237°
2026-05-07 23:21 33.95784 -118.17884 3087 ft 207 kts 264°
2026-05-07 23:22 33.95648 -118.19585 3063 ft 204 kts 265°
2026-05-07 23:22 33.95462 -118.21321 2835 ft 214 kts 263°
2026-05-07 23:22 33.95281 -118.23112 2570 ft 220 kts 264°
2026-05-07 23:22 33.95098 -118.24942 2273 ft 219 kts 262°
2026-05-07 23:23 33.94906 -118.26753 1979 ft 212 kts 262°
2026-05-07 23:23 33.94747 -118.28406 1709 ft 188 kts 261°
2026-05-07 23:23 33.94588 -118.29870 1483 ft 166 kts 261°
2026-05-07 23:23 33.94460 -118.31190 1268 ft 153 kts 262°
2026-05-07 23:24 33.94337 -118.32423 1140 ft 136 kts 261°
2026-05-07 23:24 33.94213 -118.33538 918 ft 135 kts 261°
2026-05-07 23:24 33.94112 -118.34607 733 ft 119 kts 261°
2026-05-07 23:24 33.94004 -118.35572 518 ft 112 kts 262°
2026-05-07 23:25 33.93917 -118.36509 433 ft 119 kts 266°
2026-05-07 23:25 33.93819 -118.37501 281 ft 117 kts 263°
2026-05-07 23:25 33.93720 -118.38412 131 ft 98 kts 264°
2026-05-07 23:25 33.93657 -118.39066 120 ft 51 kts 264°
2026-05-07 23:26 33.93617 -118.39330 119 ft 21 kts 232°
2026-05-07 23:26 33.93501 -118.39373 120 ft 17 kts 183°
2026-05-07 23:26 33.93377 -118.39387 119 ft 19 kts 180°
2026-05-07 23:26 33.93366 -118.39387 118 ft 0 kts 180°